CAPE
0 0 0 0 0 0 0 0 0 0 0 3 578 2088 3146 3181 3029 2923 2765 2710 2552 2488 2490 2430 2313 2296 2269 2210 2196 2190 2132 2014 1952 1906 1806 1752 1730 1706 1670 1540 1371 1148 888 731 688 711 727 720 711 726 759 539 406 371 248 0 1 21 52 69 38 4 1 0 0 0 0 0 0 679 840 662 723 821 940 917 866 859 935 1073 1150 1243 1336 1449 1324
0 0 0 0 0 0 0 0 0 0 0 0 616 1799 2714 3025 3093 3024 2861 2605 2558 2418 2383 2346 2298 2266 2207 2145 2126 2108 2031 1943 1905 1857 1820 1758 1688 1697 1682 1615 1457 1213 999 758 623 616 663 738 795 734 753 581 446 378 321 48 61 60 70 57 12 19 2 0 0 0 0 0 0 73 707 856 902 873 845 824 880 901 1040 1102 1215 1290 1275 1301 1218
0 0 0 0 0 0 0 0 0 0 0 0 6 1312 2341 2714 2929 3053 2980 2754 2552 2504 2370 2299 2248 2202 2119 2096 2042 2036 2026 1972 1899 1805 1709 1653 1660 1640 1638 1584 1487 1309 1077 841 654 573 588 657 718 690 672 568 395 364 307 228 95 101 75 87 44 170 132 0 0 0 0 0 0 0 0 4 1149 1081 1030 964 888 964 1103 1244 1288 1291 1205 1130 1182
0 0 0 0 0 0 0 0 0 0 0 0 0 879 1866 2490 2812 2962 3020 2938 2723 2491 2437 2365 2289 2216 2123 1986 1983 1971 1933 1946 1888 1791 1701 1608 1633 1646 1609 1586 1498 1379 1110 1056 814 622 599 641 764 701 562 531 384 302 253 215 182 220 140 132 106 244 260 186 0 0 0 0 0 0 0 0 0 958 1259 1112 1172 1194 1264 1342 1318 1324 1268 1183 1153
0 0 0 0 0 0 0 0 0 0 0 0 0 0 1342 2168 2620 2864 2974 2970 2863 2678 2493 2386 2259 2186 2102 2037 2005 1912 1829 1879 1892 1782 1677 1668 1620 1654 1674 1646 1562 1421 1187 1182 1093 785 646 662 727 848 673 481 383 305 266 236 230 273 226 136 286 283 240 239 0 0 0 0 0 0 0 77 0 221 1265 1213 1375 1420 1350 1387 1351 1319 1347 1290 1207
0 0 0 0 0 0 0 0 0 0 0 0 0 0 249 1839 2388 2704 2838 2908 2876 2764 2602 2388 2243 2213 2141 2057 1973 1963 1875 1820 1896 1843 1783 1711 1668 1745 1726 1666 1590 1459 1265 1214 1222 947 727 715 789 924 970 1001 830 433 282 288 301 302 300 243 263 354 350 386 0 0 0 4 0 0 0 16 653 782 1106 916 1202 1262 1433 1318 1446 1393 1352 1307 1090
0 0 0 0 0 0 0 0 0 0 0 0 0 0 0 821 2097 2430 2731 2851 2809 2740 2645 2423 2218 2188 2169 2045 1994 1908 1832 1808 1871 1886 1764 1732 1689 1590 1593 1594 1548 1470 1318 1251 1269 1169 840 751 850 1036 1271 1549 1629 1421 804 388 380 368 366 316 324 341 390 485 477 438 388 315 144 6 40 107 40 643 580 646 868 867 1180 1279 1307 1182 1186 1141 1099
0 0 0 0 0 0 0 0 0 0 0 0 0 0 0 17 1378 2148 2467 2696 2755 2677 2597 2410 2246 2131 2146 2156 2053 1922 1827 1761 1816 1824 1792 1714 1641 1589 1539 1525 1487 1442 1349 1270 1250 1246 1018 806 859 1144 1485 1725 1734 1703 1476 829 463 466 422 409 401 457 544 589 584 589 551 479 395 185 89 11 0 717 744 554 113 550 618 926 902 930 942 1073 1075
0 0 0 0 0 0 0 0 0 0 0 0 0 0 0 0 951 1558 2072 2402 2556 2560 2477 2405 2292 2127 2128 2110 2061 1983 1930 1894 1825 1758 1742 1694 1650 1585 1519 1464 1408 1394 1345 1255 1223 1181 1261 980 953 1161 1454 1696 1654 1601 1562 1344 695 574 555 507 516 563 632 739 723 693 651 556 360 350 475 490 593 709 839 845 685 495 680 707 671 714 833 956 949
0 0 0 0 0 0 0 0 0 0 0 0 0 0 0 0 277 1516 1634 1954 2245 2398 2352 2345 2303 2194 2123 2063 1988 1969 1981 1964 1880 1818 1769 1683 1631 1609 1558 1507 1424 1397 1368 1254 1168 1118 1234 1230 1108 1167 1338 1472 1469 1490 1476 1456 1138 659 640 609 588 628 694 766 826 795 641 490 407 447 492 717 956 1084 1154 1074 1005 798 926 864 772 752 635 597 695
0 0 0 0 0 0 0 0 0 0 0 0 0 0 0 0 9 661 1665 1632 1911 2132 2210 2201 2289 2218 2098 2086 2061 2000 1981 1935 1854 1776 1751 1698 1669 1594 1580 1568 1539 1473 1418 1327 1231 1150 1180 1287 1252 1208 1258 1269 1298 1359 1438 1407 1280 821 706 713 697 679 682 688 645 640 602 587 605 687 683 661 937 1116 1256 1190 1172 1153 1054 930 867 795 620 653 550
0 0 0 0 0 0 0 0 0 0 0 0 0 0 0 0 0 372 795 1595 1599 1712 1982 2107 2212 2263 2094 2118 2103 2061 2001 1860 1768 1703 1621 1600 1630 1610 1591 1592 1564 1503 1432 1366 1320 1304 1202 1250 1302 1228 1167 1140 1170 1246 1342 1378 1347 1104 735 753 760 731 689 654 689 763 770 822 882 925 854 588 600 774 1019 1165 1197 1211 1089 1011 1042 939 701 650 678
0 0 0 0 0 0 0 0 0 0 0 0 0 0 0 0 0 0 538 912 1515 1607 1560 1856 1971 2140 2112 2091 2142 2052 1942 1809 1672 1552 1523 1497 1525 1592 1618 1605 1595 1520 1470 1420 1372 1332 1303 1260 1325 1334 1274 1188 1164 1205 1273 1307 1320 1314 967 810 828 858 866 920 971 980 957 1015 1063 981 883 696 666 805 918 1106 1242 1236 1195 1192 1130 916 770 702 724
0 0 0 0 0 0 0 0 0 0 0 0 0 0 0 0 0 0 0 531 1086 1440 1621 1521 1763 1879 2124 2202 2139 2095 1912 1777 1629 1564 1446 1438 1524 1589 1632 1664 1665 1580 1516 1456 1418 1408 1401 1331 1348 1391 1403 1354 1273 1240 1241 1247 1241 1246 980 884 942 992 1066 1113 1078 1070 1097 1125 1066 1030 995 683 698 833 952 1072 1190 1348 1415 1249 1221 1054 904 952 955
0 0 0 0 0 0 0 0 0 0 0 0 0 0 0 0 0 0 0 0 545 1218 1509 1612 1576 1799 1823 2074 2214 2016 1832 1656 1535 1506 1448 1422 1482 1566 1611 1611 1625 1601 1567 1507 1491 1470 1457 1456 1360 1351 1386 1424 1399 1327 1278 1251 1227 1196 1028 1003 1050 1139 1190 1167 1154 1166 1160 1141 1146 1151 948 710 764 867 1054 1238 1446 1593 1562 1309 1229 1157 1000 1016 1047
0 0 0 0 0 0 0 0 0 0 0 0 0 0 0 0 0 0 0 0 0 630 1414 1597 1724 1596 1420 1702 1964 1982 1691 1491 1402 1456 1435 1424 1461 1480 1541 1542 1532 1399 1346 1642 1654 1607 1588 1571 1496 1339 1330 1361 1448 1440 1371 1324 1300 1262 1193 1206 1254 1262 1301 1308 1314 1300 1320 1274 1300 1173 963 891 911 1063 1206 1318 1361 1510 1578 1498 1260 1200 1121 1056 997
0 0 0 0 0 0 0 0 0 0 0 0 0 0 0 0 0 0 0 0 0 10 598 1522 1678 1689 1110 861 1555 1571 1614 1333 1352 1416 1470 1491 1459 1438 1458 1497 1593 1483 1424 1506 1772 1821 1737 1635 1589 1495 1319 1280 1351 1457 1494 1448 1399 1360 1344 1362 1400 1438 1444 1472 1463 1440 1408 1398 1346 1217 1104 1117 1255 1445 1406 1221 1336 1427 1548 1611 1419 1358 1400 1220 1121
0 0 0 0 0 0 0 0 0 0 0 0 0 0 0 0 0 0 0 0 0 2 246 698 1497 1514 1266 944 995 1059 1114 1371 1400 1460 1477 1470 1468 1442 1415 1404 1429 1479 1496 1445 1599 1690 1651 1544 1637 1612 1417 1282 1279 1335 1428 1488 1474 1444 1423 1410 1430 1465 1519 1549 1586 1570 1542 1473 1396 1312 1184 1223 1398 1608 1469 1171 1271 1383 1554 1686 1517 1422 1433 1385 1302
0 0 0 0 0 0 0 0 0 0 0 0 0 0 0 0 0 0 0 0 0 0 110 454 1199 1361 924 594 659 870 945 1169 1451 1480 1429 1374 1370 1378 1351 1359 1396 1386 1429 1477 1546 1549 1584 1604 1614 1686 1612 1404 1282 1281 1303 1330 1424 1439 1429 1436 1440 1463 1492 1550 1633 1632 1600 1533 1475 1393 1313 1314 1521 1688 1682 1639 1498 1419 1649 1707 1412 1457 1466 1422 1394
0 0 0 0 0 0 0 0 0 0 0 0 0 0 0 0 0 0 0 0 0 0 0 353 522 1120 904 555 673 846 935 1046 1331 1488 1382 1284 1247 1190 1186 1226 1245 1283 1294 1472 1616 1657 1637 1602 1643 1678 1665 1528 1406 1305 1266 1273 1266 1310 1338 1395 1452 1493 1505 1532 1582 1604 1602 1591 1537 1482 1432 1404 1482 1553 1565 1731 1767 1580 1717 1596 1479 1422 1489 1448 1436
0 0 0 0 0 0 0 0 0 0 0 0 0 0 0 0 0 0 0 0 0 0 0 283 718 732 764 906 932 1047 1124 1122 1258 1386 1280 1183 1144 1089 1041 1055 1157 1239 1420 1487 1524 1602 1656 1668 1644 1542 1425 1370 1360 1333 1291 1276 1222 1189 1230 1286 1374 1476 1531 1538 1550 1572 1630 1656 1647 1581 1594 1596 1511 1406 1461 1778 1813 1699 1623 1637 1568 1549 1537 1529 1505
0 0 0 0 0 0 0 0 0 0 0 0 0 0 0 0 0 0 0 0 0 0 10 320 528 1290 1142 1022 1073 1137 1137 1134 1166 1283 1228 1104 1040 982 1003 1035 1085 1191 1418 1511 1525 1529 1542 1528 1485 1385 1332 1303 1258 1234 1188 1133 1135 1128 1125 1198 1275 1400 1479 1532 1553 1615 1670 1734 1745 1705 1742 1821 1865 1834 1664 1668 1856 1781 1741 1683 1661 1690 1675 1636 1543
0 0 0 0 0 0 0 0 0 0 0 0 0 0 0 0 0 0 0 0 0 0 0 286 491 798 1445 1296 1224 1224 1204 1211 1210 1179 1158 1104 1005 950 962 1040 1157 1228 1299 1421 1479 1506 1507 1488 1424 1312 1207 1144 1143 1148 1112 1081 1086 1090 1093 1148 1238 1312 1399 1458 1542 1635 1703 1797 1842 1848 1866 1905 1905 1932 1947 1916 1889 1850 1785 1679 1785 1800 1782 1669 1503
0 0 0 0 0 0 0 0 0 0 0 0 0 0 0 0 0 0 0 0 0 0 0 261 468 412 1258 1416 1380 1297 1251 1238 1182 1114 1074 1082 994 935 956 985 1108 1243 1315 1370 1450 1486 1473 1447 1307 1215 1103 1074 1111 1142 1112 1074 1058 1049 1063 1128 1213 1282 1337 1380 1470 1570 1668 1780 1861 1863 1867 1850 1857 1904 2012 2017 1950 1972 1904 1845 1911 1892 1806 1662 1546
0 0 0 0 0 0 0 0 0 0 0 0 0 0 0 0 0 0 0 0 0 0 0 18 308 105 918 1432 1404 1384 1325 1208 1156 1101 1050 1042 985 917 938 963 1025 1116 1204 1316 1404 1446 1447 1392 1319 1219 1156 1115 1146 1159 1130 1097 1061 1037 1102 1154 1221 1292 1325 1356 1402 1484 1697 1701 1804 1840 1822 1832 1806 1849 1985 2117 2090 2114 1978 1893 1894 1841 1755 1713 1659
0 0 0 1 1 0 0 0 0 0 0 0 0 0 0 0 0 0 0 0 0 0 0 0 239 93 730 1419 1415 1389 1363 1230 1115 1090 1086 1070 997 921 927 957 1000 1053 1101 1194 1294 1320 1354 1391 1342 1281 1200 1164 1183 1178 1159 1136 1123 1086 1152 1259 1317 1345 1380 1396 1400 1445 1552 1649 1766 1820 1860 1922 1905 1828 1954 2098 2162 2172 1992 1820 1739 1663 1655 1653 1672
0 0 1 1 0 0 0 0 0 0 0 0 0 0 0 0 0 0 0 0 0 0 0 0 0 98 701 1417 1424 1381 1376 1299 1132 1073 1077 1079 1027 950 919 960 999 1046 1093 1127 1193 1275 1317 1354 1372 1351 1319 1274 1241 1186 1195 1211 1208 1192 1218 1367 1449 1471 1489 1496 1512 1504 1548 1663 1808 1903 1952 2047 2102 1908 1934 2029 2096 2122 1992 1740 1638 1594 1550 1612 1664
0 0 1 0 0 0 0 0 0 0 0 0 0 0 0 0 0 0 0 0 0 0 0 0 0 114 717 1430 1445 1395 1398 1359 1221 1116 1088 1059 1027 992 962 962 987 1028 1062 1095 1134 1164 1219 1243 1258 1215 1203 1222 1224 1191 1157 1194 1226 1247 1281 1355 1484 1573 1596 1616 1604 1616 1671 1780 1912 2007 2006 2083 2175 2135 1948 1916 1941 1972 1877 1711 1662 1574 1540 1571 1637
0 0 0 0 0 0 0 0 0 0 0 1 3 1 0 0 0 0 0 0 0 0 0 0 0 109 740 1414 1474 1440 1438 1426 1317 1166 1093 1047 1017 994 1000 1020 1031 1033 1039 1076 1113 1130 1149 1130 974 876 889 892 1023 1025 1033 1121 1208 1260 1305 1366 1448 1539 1616 1654 1675 1694 1759 1840 1927 1980 1986 2024 2093 2106 2034 1859 1816 1809 1807 1686 1628 1609 1572 1564 1616
0 1 0 0 0 0 0 0 1 1 1 2 2 3 2 0 0 0 0 0 0 0 0 0 0 114 821 1428 1496 1485 1492 1479 1394 1221 1097 1058 1024 1008 1000 1017 1062 1107 1121 1136 1154 1178 1201 1120 997 865 757 793 884 924 910 943 1179 1262 1331 1392 1453 1518 1566 1583 1601 1613 1626 1671 1765 1830 1863 1922 1984 2021 1961 1927 1931 1963 2022 1846 1531 1560 1580 1577 1635
0 1 0 0 0 0 0 2 1 2 6 8 7 8 18 4 0 0 0 0 0 0 0 0 0 102 954 1503 1523 1514 1513 1487 1413 1266 1145 1097 1081 1068 1040 1020 1047 1093 1158 1241 1282 1276 1235 1146 1076 994 854 835 890 959 1002 993 1072 1148 1297 1406 1509 1526 1538 1535 1535 1532 1521 1512 1584 1695 1772 1851 1924 1950 1954 1982 2086 2165 2148 1986 1662 1484 1523 1564 1596
1 1 2 1 1 1 1 2 3 10 14 16 6 12 34 21 0 0 0 0 0 0 0 0 0 179 1207 1584 1572 1546 1526 1473 1388 1285 1207 1160 1144 1110 1100 1099 1110 1130 1157 1221 1270 1280 1245 1180 1128 1101 1001 897 877 884 891 1060 1090 1110 1233 1344 1410 1464 1572 1571 1574 1567 1571 1537 1531 1618 1721 1796 1835 1891 1932 1974 2094 2173 2165 2028 1812 1607 1510 1507 1520
0 2 4 1 0 3 5 4 11 16 27 25 11 9 9 17 0 0 0 0 0 0 0 2 94 546 1479 1666 1630 1574 1547 1501 1435 1351 1273 1235 1197 1149 1110 1129 1164 1178 1161 1142 1124 1150 1144 1097 1070 1060 1050 947 838 883 882 982 1131 1168 1226 1368 1379 1475 1550 1570 1579 1577 1563 1546 1533 1552 1622 1706 1780 1859 1890 1930 2010 2072 2071 2032 1867 1696 1567 1482 1475
0 0 2 0 0 3 4 7 14 16 12 20 12 3 3 0 0 0 0 0 0 0 21 173 464 989 1581 1737 1701 1634 1597 1569 1533 1448 1373 1320 1255 1204 1144 1161 1195 1178 1116 1061 1010 995 1001 995 925 891 925 970 903 821 877 937 1130 1214 1242 1357 1429 1459 1503 1515 1520 1536 1540 1548 1552 1563 1596 1635 1675 1709 1772 1840 1903 1971 1998 1972 1870 1738 1634 1550 1468
0 1 1 1 2 4 3 1 9 9 6 4 22 2 0 0 0 0 0 0 0 5 294 650 940 1317 1659 1794 1797 1735 1688 1665 1626 1553 1464 1394 1328 1275 1191 1173 1201 1158 1080 989 929 885 840 822 820 802 821 872 902 890 822 828 1021 1243 1318 1454 1493 1490 1460 1472 1504 1524 1530 1544 1576 1585 1601 1621 1599 1576 1609 1667 1731 1820 1879 1897 1843 1762 1658 1575 1546
0 1 1 2 2 2 2 2 5 7 2 1 2 1 0 0 0 0 0 0 99 369 762 1058 1302 1532 1725 1845 1872 1819 1782 1756 1702 1629 1531 1482 1421 1354 1256 1202 1232 1201 1112 992 900 809 751 714 730 737 750 788 834 874 911 921 969 1129 1383 1422 1510 1516 1468 1489 1511 1539 1569 1585 1589 1610 1616 1612 1620 1619 1597 1586 1606 1654 1732 1786 1773 1728 1698 1680 1617
1 0 2 2 7 2 1 5 7 3 2 0 1 0 0 0 39 53 126 400 612 820 1084 1320 1518 1724 1817 1861 1897 1880 1842 1815 1788 1698 1580 1505 1459 1421 1362 1297 1294 1292 1243 1129 979 852 736 692 669 666 675 722 782 818 874 933 947 905 1067 1289 1459 1471 1574 1594 1563 1604 1642 1675 1690 1661 1641 1625 1621 1638 1663 1662 1658 1643 1623 1635 1644 1671 1698 1722 1740
8 6 5 1 1 0 2 3 2 2 1 1 1 0 8 82 182 147 262 590 812 1090 1300 1489 1587 1722 1906 1986 1979 1955 1916 1900 1894 1836 1731 1572 1530 1497 1483 1420 1377 1339 1295 1230 1128 1007 822 737 670 627 616 632 660 736 802 858 929 964 960 1143 1283 1424 1673 1718 1714 1684 1680 1718 1763 1771 1737 1726 1730 1752 1741 1713 1673 1622 1560 1508 1525 1586 1663 1744 1792
8 4 0 3 3 5 4 2 2 1 5 0 46 110 205 383 509 378 256 331 614 1090 1371 1494 1604 1636 1677 1729 1828 1902 1926 1935 1912 1828 1664 1567 1530 1508 1489 1442 1369 1276 1210 1180 1126 1042 904 773 676 619 608 612 662 722 770 818 874 930 942 914 1015 1263 1553 1680 1724 1752 1746 1779 1820 1800 1803 1796 1792 1761 1729 1692 1668 1613 1586 1566 1559 1571 1629 1711 1810
2 0 2 2 6 5 1 3 2 3 18 87 187 271 359 445 560 613 556 508 526 500 415 669 1131 1362 1463 1534 1594 1627 1658 1682 1693 1693 1648 1590 1525 1477 1449 1352 1282 1201 1132 1093 1053 999 919 791 695 643 608 619 735 817 808 828 837 868 921 915 923 1185 1442 1602 1653 1578 1657 1786 1853 1836 1816 1809 1799 1788 1769 1766 1746 1745 1792 1836 1813 1771 1731 1747 1804
0 0 0 1 7 3 2 2 5 26 11 23 114 263 242 288 353 332 372 539 683 716 706 741 723 753 754 892 1015 1156 1335 1456 1508 1569 1588 1564 1463 1366 1303 1228 1124 1090 1101 1108 1075 1014 927 808 714 652 611 624 670 743 787 802 791 802 846 891 898 1081 1288 1428 1427 1453 1554 1706 1769 1761 1760 1785 1809 1804 1830 1858 1878 1892 1935 1966 1960 1926 1903 1912 1806
0 0 0 0 3 4 2 1 2 2 16 100 246 299 277 266 319 149 212 398 603 765 765 921 900 1001 1030 993 930 862 798 796 806 833 850 926 1062 1173 1155 1100 1083 1056 1022 1027 1029 1013 960 846 755 680 615 603 601 618 672 724 758 756 778 832 871 920 1118 1287 1361 1364 1425 1501 1597 1669 1693 1738 1758 1782 1796 1857 1909 1945 1973 1975 1958 1795 1720 1696 1779
0 1 0 2 4 4 5 6 2 2 2 220 312 289 102 22 3 0 274 400 601 710 748 922 987 1013 1029 1013 1018 987 931 876 846 803 742 705 677 693 793 840 861 889 887 889 921 957 949 862 758 705 646 611 586 557 558 620 694 764 797 831 834 891 1024 1126 1130 1148 1208 1320 1426 1518 1556 1583 1645 1714 1750 1774 1811 1873 1948 1927 1791 1576 1476 1462 1664
0 0 1 1 5 7 6 7 99 3 106 299 250 315 308 5 52 259 294 340 532 574 645 674 724 732 708 748 719 712 712 687 686 671 638 591 566 586 622 622 709 791 824 829 840 858 854 813 732 700 669 617 582 561 570 701 777 790 794 832 914 944 912 946 1030 1073 1129 1167 1172 1213 1257 1342 1503 1562 1602 1649 1679 1736 1802 1775 1607 1396 1272 1326 1520
2 0 2 3 7 6 6 4 4 23 62 297 346 356 373 110 297 338 298 321 336 424 461 517 574 654 620 498 341 335 354 354 375 373 366 383 403 461 514 546 590 660 737 784 818 816 799 765 701 649 596 554 571 600 624 686 780 763 749 750 810 887 908 900 860 858 874 888 914 924 981 1018 1111 1175 1263 1408 1448 1455 1514 1512 1323 1124 1058 1218 1445
0 0 1 3 7 7 5 6 6 9 27 25 295 456 377 390 465 452 410 392 452 433 400 388 382 316 226 124 16 23 35 194 277 314 301 282 329 399 428 441 484 503 574 680 743 757 741 690 634 546 496 476 495 523 533 607 644 651 617 620 642 688 691 677 667 687 742 800 818 833 875 910 913 926 953 1030 1110 1160 1179 1188 1062 936 952 1084 1325
0 1 1 4 7 6 6 7 6 7 40 8 18 91 50 550 638 525 503 477 510 295 277 256 28 24 0 0 0 0 9 163 188 188 200 220 275 388 412 403 398 385 410 456 568 673 687 646 530 452 439 463 481 442 540 529 422 442 545 614 644 675 719 742 771 831 880 850 753 685 691 758 689 676 685 675 674 760 863 862 832 797 795 920 1205
0 0 1 1 4 5 5 5 5 9 10 10 11 11 13 288 255 662 605 630 637 478 408 113 95 103 110 86 188 145 61 127 198 237 193 213 238 334 420 383 364 370 372 363 382 472 588 605 522 476 488 489 511 527 487 463 541 663 766 819 809 800 795 755 807 866 885 854 854 847 853 853 855 853 825 816 880 1030 1046 833 643 603 645 839 1231
0 0 0 2 3 5 5 5 6 8 9 10 6 2 18 18 18 26 15 329 302 430 306 106 0 27 237 362 307 83 225 353 144 176 79 270 304 446 483 508 464 430 443 394 362 384 470 523 555 552 503 526 525 514 565 720 813 808 740 682 678 799 941 974 958 928 905 889 825 875 934 938 931 908 941 990 1123 1211 1068 847 742 788 996 1262 1402
0 0 0 1 2 5 5 4 4 5 6 7 8 9 16 8 48 195 51 41 130 252 381 230 148 407 404 349 292 349 270 384 464 384 82 31 64 319 0 0 62 110 328 395 387 450 471 476 463 460 458 520 535 690 728 648 631 650 620 585 568 593 719 882 1048 1124 1136 980 806 999 1077 1080 1042 978 966 988 672 826 1065 1052 1018 1044 1128 1319 1380
0 0 0 0 0 2 2 2 1 3 2 3 2 5 22 39 26 6 4 9 178 47 256 379 277 267 408 291 389 286 102 108 210 213 298 295 227 59 8 188 15 0 240 275 316 266 270 314 427 460 499 560 548 519 475 470 509 586 666 648 616 628 790 883 889 856 878 908 909 895 926 919 875 793 731 685 579 775 967 1009 1059 1122 1161 1139 1041
Wind_Speed
nan nan nan nan nan nan nan nan nan nan nan nan 53 52 53 54 55 52 52 53 53 51 47 45 38 36 37 35 31 31 33 32 31 32 32 31 32 30 27 23 23 23 24 28 28 22 20 17 13 12 11 10 9 7 7 nan nan nan nan nan nan nan nan nan nan nan nan nan nan 4 4 4 2 3 3 3 2 4 6 7 9 11 12 12 11
nan nan nan nan nan nan nan nan nan nan nan nan 57 53 52 53 53 53 56 55 53 51 50 47 42 36 36 36 35 35 38 36 32 32 31 33 33 31 30 27 24 22 21 26 31 24 21 19 14 12 13 12 10 10 11 nan nan nan nan nan nan nan nan nan nan nan nan nan nan nan 3 3 1 2 3 4 4 3 5 7 9 10 10 11 10
nan nan nan nan nan nan nan nan nan nan nan nan nan 58 55 53 53 56 56 55 52 51 51 48 44 39 38 40 41 40 40 39 34 34 36 36 35 33 32 29 25 22 20 23 28 26 23 20 16 15 14 14 13 13 12 10 nan 8 nan nan nan 12 9 nan nan nan nan nan nan nan nan nan 3 1 2 4 4 3 4 7 8 10 10 9 10
nan nan nan nan nan nan nan nan nan nan nan nan nan 59 56 54 54 55 55 54 54 53 50 47 45 46 48 49 46 43 43 43 41 40 39 38 36 34 33 31 26 23 22 22 23 25 23 21 19 17 17 16 14 15 14 12 14 13 11 10 11 11 10 8 nan nan nan nan nan nan nan nan nan 4 2 2 2 4 4 6 7 9 9 9 10
nan nan nan nan nan nan nan nan nan nan nan nan nan nan 56 54 54 54 55 55 55 54 52 53 54 54 51 52 52 51 51 50 47 42 38 36 36 36 33 32 27 25 26 24 22 24 24 22 20 18 19 18 16 17 17 15 14 13 13 13 11 11 9 9 nan nan nan nan nan nan nan nan nan 4 3 2 0 2 3 5 7 8 8 9 10
nan nan nan nan nan nan nan nan nan nan nan nan nan nan 57 55 56 56 56 57 57 56 57 60 54 50 47 49 50 46 45 47 45 41 38 35 34 35 34 32 29 27 30 28 22 25 26 22 21 20 20 20 18 18 19 19 17 16 15 14 12 11 9 8 nan nan nan nan nan nan nan nan 1 2 2 4 1 2 3 5 6 6 6 9 9
nan nan nan nan nan nan nan nan nan nan nan nan nan nan nan 58 57 57 57 58 57 59 62 62 59 51 46 45 45 43 41 45 46 42 39 37 37 37 37 35 30 29 32 30 23 23 28 25 22 22 21 22 20 21 21 20 19 16 18 18 14 12 11 7 6 4 8 5 4 nan nan 3 nan 7 4 3 4 3 4 4 4 6 8 10 11
nan nan nan nan nan nan nan nan nan nan nan nan nan nan nan nan 60 61 62 61 61 63 65 63 61 54 48 45 45 42 40 43 45 44 42 41 39 39 40 38 34 31 33 32 25 25 30 29 25 24 23 23 22 21 22 24 24 20 19 18 17 13 10 8 7 7 4 6 7 4 nan nan nan 4 6 8 7 8 6 4 5 6 7 8 10
nan nan nan nan nan nan nan nan nan nan nan nan nan nan nan nan 62 62 63 64 64 67 67 63 61 57 51 47 45 43 41 43 47 48 45 44 41 42 41 39 37 33 32 31 26 25 29 30 27 26 25 25 23 23 27 27 24 23 20 19 18 16 12 11 11 7 7 4 8 9 9 7 8 7 5 3 6 7 5 8 8 6 5 5 7
nan nan nan nan nan nan nan nan nan nan nan nan nan nan nan nan 62 58 59 62 64 67 67 63 60 59 54 49 45 46 45 46 50 49 47 47 43 42 42 40 39 37 33 33 30 29 31 32 29 27 26 26 26 25 28 29 27 24 20 18 18 16 14 12 10 10 8 7 8 10 11 12 10 8 5 4 2 3 6 9 10 12 11 7 6
nan nan nan nan nan nan nan nan nan nan nan nan nan nan nan nan nan 58 53 57 60 63 64 62 60 59 55 51 47 47 46 46 49 49 48 48 45 42 42 41 40 38 37 37 33 30 30 33 31 29 30 29 28 28 29 30 29 26 22 19 19 16 14 12 13 13 12 11 9 10 8 9 8 7 5 4 6 5 4 4 6 8 8 9 7
nan nan nan nan nan nan nan nan nan nan nan nan nan nan nan nan nan 56 56 52 54 57 59 59 60 57 56 54 50 48 50 48 45 46 46 45 44 43 43 43 41 40 38 38 36 31 32 35 34 33 32 31 29 29 30 31 29 26 24 20 19 17 14 14 15 14 14 12 9 10 9 9 8 7 6 6 7 6 8 7 8 9 9 7 8
nan nan nan nan nan nan nan nan nan nan nan nan nan nan nan nan nan nan 55 56 52 53 54 54 57 56 55 55 51 51 52 50 46 46 47 46 46 45 44 43 43 40 35 34 35 33 34 36 37 34 32 31 30 29 31 32 30 26 24 20 20 18 15 15 16 14 14 12 9 9 10 11 8 8 9 6 5 9 10 9 6 7 10 10 9
nan nan nan nan nan nan nan nan nan nan nan nan nan nan nan nan nan nan nan 57 57 55 51 54 56 54 54 54 51 51 52 53 49 47 47 47 48 46 45 45 43 41 38 33 34 34 34 35 36 34 33 33 33 31 33 34 31 27 25 22 19 20 19 16 16 15 14 12 13 11 11 11 10 11 10 9 9 10 9 11 11 9 11 11 10
nan nan nan nan nan nan nan nan nan nan nan nan nan nan nan nan nan nan nan nan 55 55 56 55 58 57 55 55 52 49 51 53 51 49 50 50 50 48 48 49 48 48 47 43 38 35 34 36 38 38 38 37 36 34 35 36 33 28 27 24 22 22 20 19 17 16 15 15 13 12 12 13 12 13 12 9 10 9 10 12 14 14 11 11 12
nan nan nan nan nan nan nan nan nan nan nan nan nan nan nan nan nan nan nan nan nan 49 49 51 55 58 55 54 52 49 51 53 54 54 53 51 50 48 48 52 54 53 50 48 43 38 36 36 38 38 40 39 38 37 36 37 35 31 30 28 24 25 23 20 19 16 14 15 14 13 14 12 14 14 12 11 10 9 11 14 14 14 16 13 12
nan nan nan nan nan nan nan nan nan nan nan nan nan nan nan nan nan nan nan nan nan nan 47 47 52 56 54 54 53 52 52 52 52 52 51 51 51 50 51 51 51 48 42 40 40 38 38 37 37 39 41 41 39 38 37 37 37 34 33 31 28 27 25 22 22 18 15 17 17 15 13 14 14 14 13 12 11 11 12 14 15 15 15 15 14
nan nan nan nan nan nan nan nan nan nan nan nan nan nan nan nan nan nan nan nan nan nan 47 49 49 51 53 55 54 51 54 53 51 51 52 53 53 53 54 53 50 49 46 42 40 37 38 37 37 39 44 44 41 41 39 38 38 37 35 34 32 31 26 26 24 21 18 19 18 17 16 15 16 16 13 13 12 12 14 14 16 15 16 16 15
nan nan nan nan nan nan nan nan nan nan nan nan nan nan nan nan nan nan nan nan nan nan 47 48 49 51 53 54 51 52 55 56 53 52 54 55 53 52 52 51 50 48 44 43 41 39 38 38 37 39 46 46 45 44 42 41 39 37 38 37 36 33 29 25 25 24 21 20 19 18 17 16 17 15 15 15 13 14 13 15 16 18 16 16 18
nan nan nan nan nan nan nan nan nan nan nan nan nan nan nan nan nan nan nan nan nan nan nan 46 48 48 50 51 51 52 54 54 55 54 55 54 53 53 52 51 48 46 43 41 41 39 39 38 38 43 50 50 46 46 44 42 41 39 40 40 38 34 29 25 26 27 25 21 20 19 18 18 18 18 17 16 15 14 15 16 17 18 18 18 19
nan nan nan nan nan nan nan nan nan nan nan nan nan nan nan nan nan nan nan nan nan nan nan 48 52 50 49 52 50 49 48 51 54 56 55 54 54 53 53 50 49 46 43 42 40 38 37 36 34 40 52 52 45 45 46 45 42 41 42 40 39 35 29 28 29 28 24 22 21 21 20 19 21 20 18 18 17 17 18 17 18 20 19 20 21
nan nan nan nan nan nan nan nan nan nan nan nan nan nan nan nan nan nan nan nan nan nan nan 50 55 54 51 51 50 49 49 51 54 58 58 56 54 54 54 52 48 45 43 42 42 39 37 36 34 35 45 50 46 43 47 48 44 42 43 43 38 34 31 29 30 27 25 24 24 22 20 21 22 21 21 21 19 20 20 20 19 20 19 19 18
nan nan nan nan nan nan nan nan nan nan nan nan nan nan nan nan nan nan nan nan nan nan nan 51 55 55 52 52 51 49 51 52 52 58 59 56 53 54 55 51 48 47 45 43 43 41 38 37 38 37 40 46 45 44 46 47 46 45 43 41 38 35 33 31 28 27 27 26 25 23 22 24 25 24 23 23 23 21 22 22 21 20 19 19 19
nan nan nan nan nan nan nan nan nan nan nan nan nan nan nan nan nan nan nan nan nan nan nan 49 52 53 52 53 48 44 46 49 51 54 55 54 54 56 55 51 49 49 46 44 43 42 40 38 38 38 38 39 42 45 46 46 46 47 45 41 39 37 35 32 28 28 28 28 26 25 24 26 27 26 27 27 24 24 24 23 23 21 20 20 19
nan nan nan nan nan nan nan nan nan nan nan nan nan nan nan nan nan nan nan nan nan nan nan nan 50 53 54 49 37 32 36 42 44 50 51 52 55 57 55 51 51 48 46 45 43 43 41 38 37 37 38 36 37 42 46 47 48 49 46 43 40 39 37 33 30 28 29 29 29 26 29 30 28 27 29 29 27 26 25 25 25 25 22 21 20
nan nan nan nan nan nan nan nan nan nan nan nan nan nan nan nan nan nan nan nan nan nan nan nan 49 nan 55 48 34 24 26 33 38 44 48 52 54 56 55 53 51 48 46 45 43 42 41 38 37 37 38 38 37 39 46 50 51 51 49 44 41 40 38 35 32 29 29 32 33 32 33 32 28 26 28 29 29 27 28 26 26 28 27 26 22
nan nan nan nan nan nan nan nan nan nan nan nan nan nan nan nan nan nan nan nan nan nan nan nan nan nan 53 53 45 31 27 29 35 41 48 53 55 56 56 53 51 49 47 45 43 42 43 41 38 38 37 38 37 38 45 53 55 52 49 44 41 38 37 36 34 31 30 34 38 38 36 32 27 27 29 30 30 29 28 26 26 29 32 31 26
nan nan nan nan nan nan nan nan nan nan nan nan nan nan nan nan nan nan nan nan nan nan nan nan nan 48 48 48 45 37 31 31 35 41 48 52 56 57 55 54 53 50 48 46 44 43 45 44 41 40 40 41 40 39 44 54 58 54 50 47 42 37 35 36 35 33 34 37 41 42 37 32 28 30 31 31 31 31 30 28 27 30 33 33 31
nan nan nan nan nan nan nan nan nan nan nan nan nan nan nan nan nan nan nan nan nan nan nan nan nan 43 41 39 38 37 37 36 38 43 47 52 55 56 55 55 54 52 51 49 48 47 49 52 55 56 55 55 54 48 47 54 59 56 53 50 45 38 37 37 36 35 37 39 44 44 39 34 31 32 31 30 28 30 33 32 31 31 33 32 33
nan nan nan nan nan nan nan nan nan nan nan nan nan nan nan nan nan nan nan nan nan nan nan nan nan 38 36 36 37 39 40 39 39 41 44 50 55 56 56 55 54 53 53 53 52 50 50 51 50 50 49 51 48 46 47 53 62 61 57 56 50 42 40 39 37 37 40 42 45 45 40 34 31 31 31 27 24 26 30 33 35 33 33 32 32
nan nan nan nan nan nan nan nan nan nan nan nan nan nan nan nan nan nan nan nan nan nan nan nan nan 36 36 36 39 40 41 39 38 40 44 49 54 57 57 56 56 56 56 56 55 53 54 55 54 50 48 47 44 41 33 35 45 52 58 57 52 45 43 41 39 40 42 45 48 46 41 36 33 32 30 25 23 24 27 30 35 35 35 33 33
nan nan nan nan nan nan nan nan nan nan nan nan nan nan nan nan nan nan nan nan nan nan nan nan nan 36 36 37 40 42 42 40 40 41 43 47 53 57 57 57 58 57 58 58 56 55 56 57 56 51 47 46 44 43 38 35 40 47 54 55 52 47 45 43 42 42 45 49 49 46 43 40 37 34 33 30 27 26 26 28 31 32 33 32 34
nan nan nan nan nan nan nan nan nan nan nan nan nan nan nan nan nan nan nan nan nan nan nan nan nan 34 34 37 42 43 42 42 40 40 44 48 51 55 57 58 57 58 59 57 56 58 58 57 55 50 47 46 44 41 39 37 39 44 49 52 53 48 44 42 42 43 46 49 49 46 44 42 40 35 34 33 33 33 31 29 30 31 31 32 32
nan nan nan nan nan nan nan nan nan nan nan nan nan nan nan nan nan nan nan nan nan nan nan 36 34 32 34 38 42 45 44 43 42 42 44 46 49 51 55 58 60 61 60 59 59 58 60 58 54 51 48 46 44 43 40 38 37 37 42 50 53 50 45 42 41 43 47 49 48 46 44 42 41 40 37 35 35 36 38 38 35 32 31 29 30
nan nan nan nan nan nan nan nan nan nan nan nan nan nan nan nan nan nan nan nan nan nan 35 36 35 34 35 39 43 47 47 46 46 45 44 45 46 50 53 57 60 60 59 59 59 60 59 57 54 52 50 48 47 42 40 38 37 36 37 45 52 51 47 44 43 45 48 50 49 47 44 42 43 41 40 38 38 39 40 39 36 32 30 31 33
nan nan nan nan nan nan nan nan nan nan nan nan nan nan nan nan nan nan nan nan nan 34 36 38 38 37 37 39 42 47 49 49 48 47 44 43 44 46 49 55 59 61 62 62 63 63 60 57 55 52 52 50 48 42 40 39 37 36 42 48 51 50 48 46 46 47 50 53 50 47 45 45 43 41 39 38 39 42 41 38 35 33 31 31 31
nan nan nan nan nan nan nan nan nan nan nan nan nan nan nan nan nan nan 27 30 32 36 39 41 40 40 40 40 42 46 50 51 50 48 46 45 45 44 47 53 57 61 62 63 64 63 61 58 55 52 50 48 47 44 40 39 38 38 47 47 47 49 50 48 48 50 53 55 53 49 47 46 45 42 41 41 41 45 40 37 34 34 34 34 31
nan nan nan nan nan nan nan nan nan nan nan nan nan nan nan nan 25 25 26 34 39 42 45 44 43 42 43 44 44 46 50 53 52 50 49 48 47 47 46 50 53 58 60 61 63 63 61 58 55 52 49 47 46 45 40 38 38 42 45 44 44 47 49 49 51 54 56 56 53 47 48 48 46 43 43 44 44 45 40 37 36 36 37 35 32
nan nan nan nan nan nan nan nan nan nan nan nan nan 17 22 25 27 28 29 33 38 43 47 48 48 47 47 46 44 45 47 50 50 51 53 53 51 50 50 51 53 57 59 61 64 63 60 58 55 51 46 44 45 45 41 39 40 45 45 44 43 46 50 50 50 52 54 55 54 52 46 46 45 42 45 46 45 44 40 39 40 42 39 36 33
nan nan nan nan nan nan nan nan nan nan nan nan 10 15 22 22 24 26 29 30 32 33 37 41 45 47 48 48 48 47 48 50 53 58 61 60 60 58 54 51 51 55 57 60 63 62 58 57 55 51 48 45 43 44 43 38 41 44 43 45 45 45 45 47 49 50 51 53 54 53 48 41 39 39 45 45 45 44 43 43 46 47 43 37 37
nan nan nan nan nan nan nan nan nan nan nan nan 9 15 23 27 27 30 34 33 33 34 35 38 42 44 46 47 48 47 47 49 53 57 60 61 59 56 53 49 48 51 54 56 59 61 58 56 55 52 49 46 45 43 44 41 41 43 41 43 45 42 41 44 50 52 52 52 52 51 48 40 36 39 45 46 46 45 44 47 50 48 46 40 48
nan nan nan nan nan nan nan nan nan nan nan 8 10 13 17 21 23 28 30 26 28 28 28 32 35 38 40 42 43 44 45 44 47 52 57 58 59 57 54 51 49 50 50 52 57 60 58 56 55 52 49 46 44 41 46 45 41 41 39 37 43 41 40 41 46 52 54 52 50 48 45 42 39 41 44 45 45 46 45 51 51 47 43 49 56
nan nan nan nan nan nan nan nan nan nan nan 8 12 15 16 nan nan nan 23 24 25 24 24 25 28 31 33 35 37 39 41 43 44 46 49 53 57 57 55 53 51 49 48 50 54 58 58 57 56 54 51 49 47 46 41 45 41 40 39 36 35 40 39 40 42 46 49 48 47 46 45 44 43 42 43 45 45 46 51 53 48 47 49 59 61
nan nan nan nan nan nan nan nan nan nan 5 7 10 14 16 nan nan 20 22 22 23 23 24 26 30 33 34 34 35 35 36 38 41 45 46 47 50 53 54 54 53 50 49 49 53 56 57 56 55 55 54 52 50 49 46 42 44 40 39 37 34 35 40 38 38 39 42 44 44 45 47 45 45 46 45 45 44 46 53 49 46 45 56 60 58
nan nan nan nan nan nan nan nan nan nan nan 5 8 11 16 19 18 18 21 22 22 22 23 25 24 25 28 32 34 35 35 35 36 40 43 44 44 47 50 53 54 53 50 49 52 55 55 54 54 54 54 53 53 51 51 47 44 43 40 38 36 35 37 37 35 34 35 36 35 36 39 43 46 48 45 42 41 43 44 44 41 48 56 53 51
nan nan nan nan nan nan nan nan nan nan nan nan 7 8 13 13 15 16 18 18 21 24 25 25 25 27 28 28 nan nan nan 34 34 34 35 38 40 42 44 49 53 53 53 51 52 54 54 53 53 53 53 54 54 53 52 52 49 46 44 38 36 35 34 35 33 33 30 29 29 29 30 32 38 42 47 48 49 44 39 37 46 54 49 47 46
nan nan nan nan nan nan nan nan nan nan nan nan nan nan nan 12 14 14 14 16 19 21 23 23 nan nan nan nan nan nan nan 34 33 34 34 35 37 38 40 43 48 52 53 53 53 53 52 51 51 52 54 55 55 53 52 51 50 49 48 45 42 41 38 37 38 37 36 37 34 32 33 32 36 36 39 43 44 45 44 49 53 48 44 42 41
nan nan nan nan nan nan nan nan nan nan nan nan nan nan nan 15 14 14 16 16 17 18 20 21 nan 21 15 nan 12 21 nan 34 34 35 37 38 38 38 37 38 43 49 52 52 52 52 50 49 49 51 53 54 54 53 51 50 50 50 48 48 48 47 48 48 44 42 40 39 41 41 41 44 44 47 45 49 49 48 46 47 46 45 42 42 41
nan nan nan nan nan nan nan nan nan nan nan nan nan nan nan nan nan nan nan 17 17 18 21 21 nan nan 9 4 4 nan 18 29 31 31 nan 38 37 36 37 40 44 49 50 50 49 48 46 45 46 47 49 51 52 50 49 48 48 48 49 49 49 47 47 49 43 39 40 44 48 48 46 44 46 44 46 48 49 48 45 44 44 44 43 44 45
nan nan nan nan nan nan nan nan nan nan nan nan nan nan nan nan nan 19 nan nan 22 20 20 19 15 9 5 4 4 11 14 23 29 29 nan nan nan 40 nan nan nan 44 45 49 54 49 45 45 43 43 45 47 48 47 44 43 45 45 43 42 42 43 43 44 43 39 45 52 48 44 45 47 46 47 49 52 51 49 46 46 45 44 45 45 44
nan nan nan nan nan nan nan nan nan nan nan nan nan nan nan nan nan nan nan nan 18 nan 17 16 16 13 7 2 6 12 15 16 22 29 25 24 28 nan nan 39 nan nan 50 50 50 50 50 42 41 43 45 44 47 56 57 49 47 46 45 44 42 41 42 40 48 57 53 49 49 47 46 46 45 46 47 47 49 50 48 47 46 47 48 46 45
Wind_Direction
nan nan nan nan nan nan nan nan nan nan nan nan 233 237 245 252 254 257 256 258 258 258 257 257 256 253 254 255 256 261 258 250 247 247 249 253 259 261 259 257 254 265 271 241 212 193 188 187 191 208 213 215 226 241 248 nan nan nan nan nan nan nan nan nan nan nan nan nan nan 171 163 187 246 282 270 244 267 317 351 356 349 352 353 347 358
nan nan nan nan nan nan nan nan nan nan nan nan 234 236 241 248 253 255 254 256 258 261 261 261 260 257 257 258 257 259 258 251 246 245 247 249 255 257 256 256 253 261 268 230 203 189 186 185 188 203 214 215 222 225 230 nan nan nan nan nan nan nan nan nan nan nan nan nan nan nan 146 136 234 274 276 252 258 288 331 345 339 345 346 342 350
nan nan nan nan nan nan nan nan nan nan nan nan nan 235 236 240 246 250 252 256 257 259 258 259 260 255 250 249 251 252 255 250 244 244 243 243 247 252 253 253 251 250 256 232 205 189 181 184 187 200 208 218 225 226 225 223 nan 218 nan nan nan 205 201 nan nan nan nan nan nan nan nan nan 68 1 333 262 259 290 313 319 318 328 341 343 348
nan nan nan nan nan nan nan nan nan nan nan nan nan 232 238 241 242 247 250 253 255 257 259 259 259 252 243 243 246 249 253 250 244 241 242 242 244 249 251 253 252 248 251 244 218 198 186 181 190 200 205 215 229 229 224 219 226 221 207 200 210 203 211 210 nan nan nan nan nan nan nan nan nan 44 34 20 307 296 302 307 308 312 328 342 346
nan nan nan nan nan nan nan nan nan nan nan nan nan nan 237 242 245 248 251 255 256 258 261 257 252 247 243 241 243 243 244 249 245 241 244 245 245 249 253 256 257 254 252 249 232 209 192 184 191 201 207 213 226 228 224 220 227 227 215 208 217 214 206 221 nan nan nan nan nan nan nan nan nan 27 357 31 272 305 281 302 304 308 323 335 340
nan nan nan nan nan nan nan nan nan nan nan nan nan nan 236 239 243 246 247 252 257 260 262 259 255 252 247 243 244 245 249 253 252 248 246 246 248 250 254 257 258 257 255 255 245 218 197 187 193 203 209 214 222 226 224 222 224 230 222 213 215 215 219 234 nan nan nan nan nan nan nan nan 328 346 328 46 92 327 303 302 306 306 331 336 334
nan nan nan nan nan nan nan nan nan nan nan nan nan nan nan 243 245 248 251 251 255 260 262 260 257 253 250 246 246 249 252 253 254 251 247 244 244 245 245 248 250 255 255 257 257 229 202 191 197 204 209 215 219 224 222 226 231 233 228 220 213 219 225 228 235 212 210 198 245 nan nan 258 nan 307 10 320 39 31 330 312 313 321 327 343 347
nan nan nan nan nan nan nan nan nan nan nan nan nan nan nan nan 249 252 253 255 256 258 262 262 261 259 253 245 241 245 251 255 256 252 246 242 243 244 244 244 244 244 249 253 255 238 210 192 197 206 210 215 220 219 221 228 233 233 236 228 218 214 227 239 234 239 231 200 234 255 nan nan nan 294 334 3 5 6 10 317 317 319 330 339 343
nan nan nan nan nan nan nan nan nan nan nan nan nan nan nan nan 247 252 255 256 257 259 260 263 262 261 257 248 242 241 246 248 250 249 247 243 242 243 244 244 244 244 247 248 251 248 220 196 194 204 210 217 219 217 222 232 238 240 243 237 225 207 213 229 238 237 244 227 243 236 249 255 248 251 276 303 349 347 12 349 346 319 323 331 335
nan nan nan nan nan nan nan nan nan nan nan nan nan nan nan nan 239 249 253 255 256 258 260 261 262 260 257 251 247 245 244 243 246 247 246 244 242 244 244 245 244 242 245 245 245 245 225 201 194 200 207 217 220 219 225 233 237 240 245 245 233 215 208 229 243 239 241 238 247 251 248 244 241 242 252 273 277 332 5 4 355 343 347 347 324
nan nan nan nan nan nan nan nan nan nan nan nan nan nan nan nan nan 237 248 251 252 254 258 260 260 259 257 256 254 251 249 246 246 247 246 244 242 242 244 245 246 245 245 245 246 245 228 205 196 200 206 214 220 222 225 234 239 241 244 245 239 226 213 225 237 239 242 242 245 252 260 265 273 284 312 328 320 329 321 349 335 341 332 335 341
nan nan nan nan nan nan nan nan nan nan nan nan nan nan nan nan nan 234 234 246 250 249 252 254 256 256 256 257 257 255 252 246 246 247 248 247 245 243 242 243 246 246 247 247 245 241 230 214 200 199 207 213 219 222 225 233 240 243 245 247 239 229 219 228 238 242 247 240 240 245 248 254 259 271 286 316 328 336 334 343 326 328 314 317 320
nan nan nan nan nan nan nan nan nan nan nan nan nan nan nan nan nan nan 233 235 243 248 246 247 250 252 252 253 254 254 252 248 244 243 244 245 243 241 240 241 243 244 246 250 245 240 235 223 207 200 206 213 219 224 227 236 242 244 247 249 243 235 228 234 238 245 250 250 244 243 246 249 250 257 269 293 306 293 315 301 310 317 325 328 327
nan nan nan nan nan nan nan nan nan nan nan nan nan nan nan nan nan nan nan 234 237 241 247 243 243 245 247 247 250 252 252 249 243 240 240 240 240 240 240 240 241 241 243 246 244 240 236 228 215 204 204 212 219 222 228 236 242 244 246 249 246 236 232 236 242 247 248 247 245 243 244 245 242 254 265 272 288 292 304 318 310 301 307 322 328
nan nan nan nan nan nan nan nan nan nan nan nan nan nan nan nan nan nan nan nan 234 239 240 243 242 240 238 240 241 244 249 248 243 238 238 238 238 239 237 235 234 235 236 238 239 237 234 229 224 215 207 209 216 220 225 234 239 242 244 246 245 242 240 239 241 250 249 253 250 244 242 242 242 250 258 274 282 303 307 305 308 306 302 313 327
nan nan nan nan nan nan nan nan nan nan nan nan nan nan nan nan nan nan nan nan nan 234 239 239 241 241 239 234 233 235 240 244 241 237 235 236 237 238 238 239 239 234 227 229 231 235 234 231 229 224 215 209 213 219 224 230 236 240 241 243 244 242 245 244 241 247 251 256 254 245 241 239 242 247 255 265 283 294 295 296 306 310 312 323 330
nan nan nan nan nan nan nan nan nan nan nan nan nan nan nan nan nan nan nan nan nan nan 237 236 237 239 237 238 235 231 233 239 241 239 236 235 236 236 237 238 239 240 242 242 241 237 235 234 233 228 220 213 213 217 223 228 234 236 240 243 241 241 243 243 241 244 247 255 252 253 244 239 243 246 251 262 276 282 289 296 302 310 314 308 324
nan nan nan nan nan nan nan nan nan nan nan nan nan nan nan nan nan nan nan nan nan nan 239 237 235 235 232 234 239 234 229 230 234 236 233 232 232 233 234 236 236 236 235 237 241 242 240 240 236 228 221 217 215 216 220 226 231 233 237 240 240 241 241 239 239 241 244 251 254 251 243 238 245 253 257 268 276 289 290 295 299 300 303 311 313
nan nan nan nan nan nan nan nan nan nan nan nan nan nan nan nan nan nan nan nan nan nan 237 238 235 232 231 231 234 238 233 226 225 228 230 230 230 232 234 235 235 236 235 235 237 242 242 242 245 235 222 219 218 217 220 222 226 231 235 238 241 242 240 241 240 240 240 247 253 253 248 241 248 253 256 263 271 280 288 289 291 288 298 302 306
nan nan nan nan nan nan nan nan nan nan nan nan nan nan nan nan nan nan nan nan nan nan nan 236 234 231 229 228 230 234 235 227 222 223 228 229 228 230 231 232 234 233 232 235 238 241 240 244 251 240 223 219 221 218 221 223 224 227 233 236 241 243 241 242 243 239 236 243 248 250 250 247 251 252 253 262 271 277 280 282 285 289 291 293 296
nan nan nan nan nan nan nan nan nan nan nan nan nan nan nan nan nan nan nan nan nan nan nan 232 232 230 226 226 227 230 232 228 222 220 223 227 226 227 228 229 231 231 231 232 235 240 240 242 249 234 219 220 222 218 220 223 224 226 230 235 239 242 242 243 245 241 234 238 242 244 248 250 257 260 257 263 267 273 274 274 276 279 284 286 292
nan nan nan nan nan nan nan nan nan nan nan nan nan nan nan nan nan nan nan nan nan nan nan 232 229 227 225 223 225 229 229 227 223 219 219 222 223 224 225 226 227 227 229 231 233 236 238 239 241 234 225 227 225 218 219 222 225 228 230 232 236 240 241 244 247 241 235 231 235 238 243 251 258 263 262 264 266 268 271 270 271 277 282 288 290
nan nan nan nan nan nan nan nan nan nan nan nan nan nan nan nan nan nan nan nan nan nan nan 232 228 223 221 221 225 228 231 230 225 220 217 217 218 221 222 223 224 224 225 227 230 233 237 236 234 233 235 234 230 223 220 222 225 229 231 232 235 239 241 243 247 243 235 233 233 232 239 247 252 259 260 263 266 269 268 271 275 274 279 282 287
nan nan nan nan nan nan nan nan nan nan nan nan nan nan nan nan nan nan nan nan nan nan nan 230 225 219 218 222 225 228 231 231 228 223 218 213 214 218 219 218 220 222 223 224 226 229 233 234 232 232 234 234 232 230 226 222 224 229 231 232 233 237 239 240 245 244 238 235 233 231 235 244 250 257 259 261 266 269 270 270 275 276 276 278 280
nan nan nan nan nan nan nan nan nan nan nan nan nan nan nan nan nan nan nan nan nan nan nan nan 219 213 215 220 220 222 227 228 229 227 220 212 211 214 216 216 217 218 220 221 223 224 227 231 230 230 233 234 233 235 233 226 223 227 231 232 233 235 238 238 241 244 239 236 233 231 235 241 246 252 256 260 265 273 273 274 279 279 278 276 272
nan nan nan nan nan nan nan nan nan nan nan nan nan nan nan nan nan nan nan nan nan nan nan nan 217 nan 211 214 212 216 228 227 225 227 223 214 210 211 213 213 215 216 217 219 220 222 223 227 227 227 230 234 236 239 236 229 225 226 229 231 232 233 236 237 239 242 240 236 234 233 235 240 244 250 254 257 262 270 273 277 283 286 284 281 282
nan nan nan nan nan nan nan nan nan nan nan nan nan nan nan nan nan nan nan nan nan nan nan nan nan nan 211 215 220 231 238 228 222 225 223 217 212 210 210 211 212 213 215 216 217 219 221 224 226 227 227 231 236 239 235 229 225 225 228 231 231 230 233 235 237 242 241 235 234 236 237 239 241 245 251 257 259 262 267 276 283 288 289 289 287
nan nan nan nan nan nan nan nan nan nan nan nan nan nan nan nan nan nan nan nan nan nan nan nan nan 212 212 218 226 230 231 225 222 224 223 219 214 210 207 208 210 211 212 213 215 217 220 222 222 223 223 226 231 234 230 225 223 224 226 230 231 227 231 235 235 239 240 234 234 237 239 239 236 240 246 252 258 259 260 267 272 276 284 289 289
nan nan nan nan nan nan nan nan nan nan nan nan nan nan nan nan nan nan nan nan nan nan nan nan nan 210 212 217 220 219 218 219 222 224 223 220 217 212 207 205 208 209 210 211 213 215 219 223 221 222 220 218 216 216 219 219 221 222 225 230 230 225 228 232 231 234 236 232 231 235 238 240 240 242 253 259 264 265 262 265 267 270 276 282 286
nan nan nan nan nan nan nan nan nan nan nan nan nan nan nan nan nan nan nan nan nan nan nan nan nan 207 209 213 213 213 215 217 220 224 224 221 218 214 208 205 205 207 209 211 213 215 219 223 224 224 223 221 220 216 212 203 209 218 224 228 229 225 225 227 227 229 230 227 227 232 236 245 250 253 259 267 273 277 275 271 269 268 271 275 282
nan nan nan nan nan nan nan nan nan nan nan nan nan nan nan nan nan nan nan nan nan nan nan nan nan 203 206 211 211 211 215 217 218 222 224 222 220 216 211 206 205 207 209 211 214 216 220 222 225 225 223 222 220 223 233 228 223 221 223 224 225 223 222 223 224 226 225 223 222 227 232 240 247 253 259 267 265 272 278 275 276 277 275 276 276
nan nan nan nan nan nan nan nan nan nan nan nan nan nan nan nan nan nan nan nan nan nan nan nan nan 202 207 211 210 212 215 217 218 221 224 223 221 218 212 209 208 208 209 212 214 217 221 223 223 223 222 223 220 217 222 228 232 235 235 231 228 225 222 221 223 224 222 221 221 225 230 233 237 246 250 252 254 264 273 275 277 280 280 283 284
nan nan nan nan nan nan nan nan nan nan nan nan nan nan nan nan nan nan nan nan nan nan nan nan nan 205 209 213 211 211 215 218 218 221 223 224 223 219 214 211 209 209 211 212 213 218 221 223 223 221 221 223 221 224 229 227 227 233 239 237 231 232 229 225 226 226 223 220 221 225 229 232 233 240 245 248 251 254 260 272 276 282 284 286 283
nan nan nan nan nan nan nan nan nan nan nan nan nan nan nan nan nan nan nan nan nan nan nan 202 206 209 212 214 212 211 214 218 220 221 223 225 224 221 216 213 211 211 211 212 215 218 221 222 222 221 219 222 224 228 231 232 232 236 238 236 231 234 235 233 233 231 226 222 223 226 230 232 235 239 244 248 251 253 256 256 256 259 265 274 280
nan nan nan nan nan nan nan nan nan nan nan nan nan nan nan nan nan nan nan nan nan nan 201 204 209 211 213 214 212 211 213 218 221 222 222 224 225 222 219 215 214 213 212 213 217 219 220 221 222 221 219 220 223 232 236 234 231 234 238 235 228 229 232 234 235 234 229 225 225 228 232 235 239 242 245 250 251 253 255 256 258 262 264 267 271
nan nan nan nan nan nan nan nan nan nan nan nan nan nan nan nan nan nan nan nan nan 197 203 207 210 212 214 214 214 212 214 218 222 223 222 222 224 225 222 219 216 214 213 213 216 218 219 220 221 220 219 219 221 230 234 236 237 236 238 234 226 224 225 228 231 233 231 227 228 231 234 237 241 243 248 258 257 256 258 260 263 263 262 262 265
nan nan nan nan nan nan nan nan nan nan nan nan nan nan nan nan nan nan 179 186 192 198 204 207 210 212 214 215 215 215 215 217 221 224 223 222 222 224 223 222 219 218 216 216 217 219 219 219 220 220 220 219 220 227 233 237 241 243 241 237 233 226 222 222 226 230 230 228 229 232 236 239 242 244 250 259 261 262 260 264 266 266 265 263 262
nan nan nan nan nan nan nan nan nan nan nan nan nan nan nan nan 162 165 178 186 188 192 196 202 208 211 214 216 216 216 217 218 220 223 225 224 223 221 222 222 221 221 218 217 219 220 219 220 221 220 220 219 219 224 232 236 243 246 243 242 240 234 228 223 221 225 228 229 231 238 241 242 243 245 253 260 263 265 263 266 267 267 266 265 263
nan nan nan nan nan nan nan nan nan nan nan nan nan 178 178 181 179 179 182 186 188 191 196 202 205 208 210 214 217 218 219 220 221 221 223 226 225 222 219 219 219 220 218 217 220 221 220 220 221 220 220 219 219 222 230 232 239 246 245 239 240 235 232 228 225 224 226 228 231 237 245 245 245 247 257 261 266 267 265 266 267 267 266 267 268
nan nan nan nan nan nan nan nan nan nan nan nan 165 178 177 172 177 180 184 185 187 193 200 206 211 214 215 215 215 217 218 219 220 220 222 224 225 224 221 218 217 219 219 218 220 221 221 221 222 221 219 219 219 221 229 235 240 246 250 243 241 240 234 232 231 229 229 229 232 235 239 247 251 254 260 265 268 272 266 264 264 265 267 269 268
nan nan nan nan nan nan nan nan nan nan nan nan 162 177 177 176 179 184 183 182 185 190 199 212 218 220 220 219 220 220 220 219 221 222 223 224 226 226 225 220 218 219 219 218 220 222 221 221 223 221 219 218 219 221 226 236 239 247 251 250 245 245 241 237 236 233 232 232 233 234 237 244 252 255 260 264 267 270 269 264 264 265 270 271 267
nan nan nan nan nan nan nan nan nan nan nan 145 164 178 176 177 182 186 180 178 184 191 202 215 222 227 228 228 226 225 225 226 226 226 226 224 224 226 226 223 219 219 218 217 220 222 222 222 223 222 219 217 219 222 225 232 239 244 250 253 246 246 247 244 240 236 235 236 238 239 240 245 253 256 259 263 267 268 271 263 264 269 274 272 269
nan nan nan nan nan nan nan nan nan nan nan 151 169 176 174 nan nan nan 177 174 185 191 199 213 219 223 228 232 233 235 233 231 231 231 229 226 226 227 226 225 223 221 218 216 218 221 222 222 223 221 218 217 218 221 227 231 237 243 247 249 250 246 248 246 242 236 236 238 241 244 245 250 255 258 261 264 265 268 265 265 269 272 274 275 272
nan nan nan nan nan nan nan nan nan nan 123 158 166 166 171 nan nan 177 183 186 194 199 207 214 217 217 219 222 226 233 235 235 235 232 228 226 226 227 228 228 227 225 221 217 217 220 222 222 222 220 218 217 218 220 226 232 234 241 244 249 249 245 248 246 242 234 233 236 241 246 249 255 257 258 260 263 265 266 264 271 274 276 273 271 270
nan nan nan nan nan nan nan nan nan nan nan 179 168 158 165 176 177 181 185 191 200 209 215 217 223 228 229 228 227 227 226 226 228 230 227 224 224 226 228 229 229 228 226 221 218 220 222 222 222 221 219 218 219 221 224 228 236 239 242 245 247 248 245 247 244 236 234 237 242 251 254 256 256 256 259 263 263 265 270 273 278 275 270 268 272
nan nan nan nan nan nan nan nan nan nan nan nan 184 171 171 167 177 184 189 194 206 210 215 218 220 225 230 228 nan nan nan 220 220 223 225 225 224 226 228 231 232 231 228 223 221 221 222 222 221 221 220 219 219 220 222 226 228 233 236 242 247 248 249 250 249 241 241 241 245 252 259 259 257 255 252 252 254 258 265 270 265 269 272 274 277
nan nan nan nan nan nan nan nan nan nan nan nan nan nan nan 183 186 189 193 203 212 215 214 210 nan nan nan nan nan nan nan 221 215 214 219 222 224 226 229 232 234 233 230 226 222 222 222 222 221 221 221 221 221 220 222 225 229 230 232 234 238 239 243 245 242 237 236 240 242 247 249 251 246 249 248 249 251 255 258 259 263 271 275 277 280
nan nan nan nan nan nan nan nan nan nan nan nan nan nan nan 196 200 205 205 213 219 216 209 205 nan 227 228 nan 203 194 nan 217 219 216 215 217 221 226 232 236 236 233 232 228 226 224 224 225 224 223 223 224 222 222 222 226 229 231 232 234 237 240 241 243 243 241 242 242 242 243 245 244 244 244 247 249 254 257 261 264 266 268 271 273 277
nan nan nan nan nan nan nan nan nan nan nan nan nan nan nan nan nan nan nan 221 223 220 214 214 nan nan 232 212 87 nan 177 206 220 213 nan 214 218 223 228 231 230 232 231 230 229 227 227 227 226 224 224 224 225 223 223 227 232 235 235 235 236 239 242 241 244 249 245 244 244 245 246 248 248 248 250 254 256 257 258 262 266 267 267 269 271
nan nan nan nan nan nan nan nan nan nan nan nan nan nan nan nan nan 218 nan nan 217 224 227 228 235 247 244 217 118 100 139 178 201 218 nan nan nan 218 nan nan nan 224 225 220 221 225 227 231 228 225 225 226 225 224 225 233 236 240 242 244 242 243 245 244 245 250 246 244 246 246 247 249 249 248 251 253 256 258 259 260 264 267 268 268 271
nan nan nan nan nan nan nan nan nan nan nan nan nan nan nan nan nan nan nan nan 227 nan 237 231 225 237 254 246 149 151 146 153 180 198 208 211 208 nan nan 227 nan nan 217 218 220 215 210 218 230 225 225 223 221 222 226 231 234 237 241 242 241 243 246 247 247 246 247 249 248 249 249 251 252 253 255 258 260 262 264 264 264 266 267 270 270